Regional Weather Roundup
Issued by NWS Sterling, VA

Current Version | Previous Version | Text Only | Print | Product List | Glossary On
Versions: 1 2 3 4 5 6 7 8 9 10 11 12 13 14 15 16 17 18 19 20 21 22 23 24 25 26 27 28 29 30 31 32 33 34 35 36 37 38 39 40 41 42 43 44 45 46 47 48 49 50
000
ASUS41 KLWX 020510
RWRLWX

REGIONAL WEATHER ROUNDUP
NATIONAL WEATHER SERVICE BALTIMORE MD/WASHINGTON DC
100 AM EDT THU JUL 02 2015

Note: "FAIR" indicates few or no clouds below 12,000 feet
with no significant weather and/or obstructions to visibility.
 TC=TEMPERATURE CELSIUS

 * =Non NWS site. Station does not report precipitation (e.g. rain,
    snow, etc.), thunder, or fog.

DCZ001-MDZ009-015-VAZ040>042-051-053>054-020600-
WASHINGTON METRO

CITY           SKY/WX    TMP DP  RH WIND       PRES   REMARKS
WASHINGTON NAT LGT RAIN  75  69  81 CALM      29.92R
DULLES         PTCLDY    70  63  78 CALM      29.92R
ANDREWS AFB    PTCLDY    70  69  99 CALM      29.91S
FT BELVOIR     PTCLDY    70  68  92 S1        29.91S
QUANTICO       PTCLDY    74  69  85 N3        29.90F
COLLEGE PARK*  CLOUDY    70  68  94 CALM      29.91S
MANASSAS*      PTCLDY    70  70 100 NW3       29.91F
GAITHERSBURG*  PTCLDY    64  59  82 CALM      29.96S

$$

MDZ006>007-011-014-020600-
BALTIMORE METRO

CITY           SKY/WX    TMP DP  RH WIND       PRES   REMARKS
BWI AIRPORT    PTCLDY    67  64  90 CALM      29.91R
MD SCIENCE CTR   N/A     75  62  64 MISG      29.91R
MARTIN STATE   CLEAR     70  68  94 CALM      29.92S
ANNAPOLIS      PTCLDY    74  66  76 CALM      29.90S
FORT MEADE*    MOCLDY    64  64 100 CALM      29.93S

$$

MDZ012-015-019>023-020600-
MARYLAND EASTERN SHORE

CITY           SKY/WX    TMP DP  RH WIND       PRES   REMARKS
OCEAN CITY     CLEAR     74  69  85 W3        29.90S
SALISBURY      PTCLDY    72  69  90 CALM      29.90S
BAY BRIDGE AP*   N/A     72  70  94 CALM      29.91S
CAMBRIDGE*     MOCLDY    73  68  83 CALM      29.91F
EASTON*        LGT RAIN  72  72 100 SE5       29.94F

$$

MDZ017>025-020600-
SOUTHERN MARYLAND

CITY           SKY/WX    TMP DP  RH WIND       PRES   REMARKS
PATUXENT RIVER PTCLDY    75  69  81 N7        29.90S
ST INIGOES     CLEAR     78  70  76 VRB5      29.89R
LEONARDTOWN*   CLEAR     72  64  78 CALM      29.92F

$$

MDZ003>005-020600-
NORTH CENTRAL MARYLAND

CITY           SKY/WX    TMP DP  RH WIND       PRES   REMARKS
FREDERICK*     PTCLDY    63  63 100 CALM      29.94S FOG
HAGERSTOWN APT CLEAR     69  58  67 S3        29.92F
WESTMINSTER*   PTCLDY    66  63  88 CALM      29.93S

$$

MDZ501>502-020600-
WESTERN MARYLAND

CITY           SKY/WX    TMP DP  RH WIND       PRES   REMARKS
OAKLAND*       CLEAR     57 N/A N/A S3        30.02F
CUMBERLAND*    CLEAR     63  61  94 CALM      29.99R

$$

VAZ025>031-020600-
SHENANDOAH VALLEY

CITY           SKY/WX    TMP DP  RH WIND       PRES   REMARKS
WINCHESTER*    NOT AVBL
FRONT ROYAL*   NOT AVBL
LURAY*         NOT AVBL
NEW MARKET*    NOT AVBL
STAUNTON*      NOT AVBL
WAYNESBORO*    NOT AVBL

$$

WVZ021-048>050-054>055-020600-
EASTERN WEST VIRGINIA PANHANDLE

CITY           SKY/WX    TMP DP  RH WIND       PRES   REMARKS
MARTINSBURG    CLEAR     65  61  87 CALM      29.93F
PETERSBURG*    NOT AVBL

$$

VAZ036>039-050-020600-
CENTRAL FOOTHILLS

CITY           SKY/WX    TMP DP  RH WIND       PRES   REMARKS
CHARLOTTESVILL PTCLDY    70  66  87 CALM      29.91S
CULPEPER*      NOT AVBL
ORANGE*        NOT AVBL
GORDONSVILLE*  NOT AVBL
WARRENTON*     NOT AVBL

$$

VAZ055>057-020600-
NORTH AND CENTRAL PIEDMONT

CITY           SKY/WX    TMP DP  RH WIND       PRES   REMARKS
FREDERICKSBRG* NOT AVBL
STAFFORD*      NOT AVBL

$$

NCZ024-NYZ072-PAZ021-071-VAZ022-071-020600-
OTHER REGIONAL OBSERVATIONS

CITY           SKY/WX    TMP DP  RH WIND       PRES   REMARKS
NEW YORK CITY  PTCLDY    75  58  55 CALM      29.90S
PHILADELPHIA   PTCLDY    75  59  57 W5        29.90S
PITTSBURGH     PTCLDY    62  58  86 CALM      29.94S
ROANOKE        CLOUDY    74  65  73 W9        29.96F
RICHMOND       CLOUDY    75  70  84 S6        29.90F
RALEIGH        CLOUDY    77  70  79 SW5       29.94F

$$

ANZ530>537-020600-
MARINE OBSERVATIONS

STATION/POSITION TIME  TEMP    WIND        PRES
                       AIR SEA DIR/SP/G
                 (UTC) (F)     (DEG/KT/KT) (MB)
THOMAS PT LIGHT  NOT AVBL
BALT KEY BRIDGE  0400   77     150/  2/  2 1012.4R
COVE POINT       0400   77     360/  9/ 11 1013.3R
LEWISETTA        0400   78 81  240/  7/  9 1012.0F
SOLOMONS ISLAND  0400      80                N/A
PINEY POINT      0400          230/ 11/ 12   N/A

$$




USA.gov is the U.S. government's official web portal to all federal, state and local government web resources and services.